Volver al catálogo

METEOR 1-20

ActivoMeteoPO
NORAD 7574·PAYLOAD·🇷🇺 Russia

Lanzado Dec 17, 1974 desde Plesetsk Cosmodrome

Loading…

Próximos Pases (próximas 24 horas)

TLE

ActualizadoSource: Space-Track

Época: Sep 14, 2026, 08:24 UTC

1 07574U 74099A   26257.35032235 -.00000028  00000-0 -22165-4 0  9999
2 07574  81.2317 232.2129 0017244  54.5873 305.6906 14.12077896663041

Sigue METEOR 1-20 en tiempo real con AllMySat

Download on the App Store